Regional Weather Roundup
Issued by NWS

Home | Current Version | Previous Version | Text Only | Print | Product List | Glossary Off
Versions: 1 2 3 4 5 6 7 8 9 10 11 12 13 14 15 16 17 18 19 20 21 22 23 24 25 26 27 28 29 30 31 32 33 34 35 36 37 38 39 40 41 42 43 44 45 46 47 48 49 50

000
ASUS43 KMKX 291011
RWRWI

WISCONSIN REGIONAL WEATHER ROUNDUP
NATIONAL WEATHER SERVICE MILWAUKEE/SULLIVAN WI
500 AM CDT FRI AUG 29 2014

NOTE: "FAIR" INDICATES FEW OR NO CLOUDS BELOW 12,000 FEET WITH NO
SIGNIFICANT WEATHER AND/OR OBSTRUCTIONS TO VISIBILITY.

WIZ001-002-006>008-014>016-023>028-291100-
NORTHWEST WISCONSIN

CITY           SKY/WX    TMP DP  RH WIND       PRES   REMARKS
SUPERIOR ARPT  CLOUDY    62  60  94 NE7       29.86S
ASHLAND        CLOUDY    63  58  83 S7        29.90F
HAYWARD        CLOUDY    61  59  93 VRB7      29.91R
SIREN          RAIN      62  60  94 SE7       29.86S
RICE LAKE      CLOUDY    60  57  91 SE12      29.91S
LADYSMITH      LGT RAIN  60  58  94 SE7       29.94S
EAU CLAIRE     HVY RAIN  59  58  96 SE9       29.89F
MENOMONIE      RAIN      60  60  98 E6        29.89S
NEW RICHMOND   LGT RAIN  62  62  99 SE9       29.84F
OSCEOLA        DRIZZLE   64  64 100 SE9       29.86F
$$

WIZ003>005-009-010-017-018-291100-
NORTH CENTRAL WISCONSIN

CITY           SKY/WX    TMP DP  RH WIND       PRES   REMARKS
WOODRUFF       CLOUDY    59  57  91 S8        29.96S FOG
RHINELANDER    LGT RAIN  57  56  96 SE7       29.98S FOG
EAGLE RIVER    CLOUDY    58  57  99 SE6       29.97S
LAND O LAKES   CLOUDY    58  55  89 SE5       29.98F
PHILLIPS       CLOUDY    57  56  97 SE8       29.94S FOG
TOMAHAWK       DRIZZLE   56  55  97 CALM      29.97S
MEDFORD        RAIN      56  56  99 SE3       29.95F
MERRILL        LGT RAIN  57  57 100 SE6       29.97S
$$

WIZ029-030-035-036-043>047-291100-
CENTRAL WISCONSIN

CITY           SKY/WX    TMP DP  RH WIND       PRES   REMARKS
WAUSAU         CLOUDY    58  57  97 E7        29.95F
MOSINEE        CLOUDY    57  57 100 SE5       29.97F
MARSHFIELD     CLOUDY    59  58  96 SE5       29.95S FOG
STEVENS POINT  CLOUDY    58  57  98 E5        29.96F
WAUPACA        CLOUDY    62  61  95 N5        29.96F
WAUTOMA        CLOUDY    61  61 100 CALM      29.96S
WISC RAPIDS    CLOUDY    60  59  96 SE5       29.96S
CAMP DOUGLAS   CLOUDY    61  61 100 SE3       29.94S
$$

WIZ011>013-019>022-031-037>040-048>050-291100-
NORTHEAST WISCONSIN

CITY           SKY/WX    TMP DP  RH WIND       PRES   REMARKS
ANTIGO         CLOUDY    56  56 100 SE8       29.98F
STURGEON BAY   CLOUDY    61  55  82 E7        30.00F
GREEN BAY      CLOUDY    61  60  97 E8        29.97F
MANITOWOC      CLOUDY    65  62  90 SE9       29.98F
APPLETON       CLOUDY    61  61 100 E3        29.97S
CLINTONVILLE   CLOUDY    59  59 100 E5        29.97F
OSHKOSH        CLOUDY    64  62  93 S5        29.95S
$$

WIZ032>034-041-042-053>061-291100-
SOUTHWEST WISCONSIN

CITY           SKY/WX    TMP DP  RH WIND       PRES   REMARKS
LA CROSSE      LGT RAIN  66  63  90 E8        29.88F
SPARTA         CLOUDY    62  60  94 E3        29.92F
VIROQUA        CLOUDY    65  65 100 SE6       29.92F
BOSCOBEL       CLOUDY    69  66  90 S6        29.92F
PRAIRIE DU CHI LGT RAIN  69  66  91 SE5       29.89F
PLATTEVILLE    CLOUDY    67  66  97 CALM      29.95R
$$

WIZ056-057-062-063-064-067-068-291100-
SOUTH CENTRAL WISCONSIN

CITY           SKY/WX    TMP DP  RH WIND       PRES   REMARKS
BARABOO/DELLS  MOCLDY    65  62  88 CALM      29.95R
LONE ROCK      CLOUDY    71  65  81 CALM      29.94R
WATERTOWN      MOCLDY    64  64 100 SE3       29.95S
MADISON        CLOUDY    66  63  90 S6        29.94S
MIDDLETON      CLOUDY    67  66  95 S6        29.94F
MONROE         CLOUDY    64  63  94 S8        29.95R FOG
JANESVILLE     MOCLDY    64  63  94 SE3       29.95S FOG
$$

WIZ051-052-058>065-066-070>072-291100-
SOUTHEAST WISCONSIN

CITY           SKY/WX    TMP DP  RH WIND       PRES   REMARKS
MILWAUKEE      MOCLDY    70  66  87 S8        29.97S
WAUKESHA       MOCLDY    64  63  94 SE7       29.98S
MILWAUKEE/TIMM MOCLDY    68  63  83 SE5       29.98S
RACINE         MOCLDY    71  66  84 S14       29.99S
BURLINGTON     MOCLDY    64  63  97 S3        29.97S
KENOSHA        MOCLDY    71  66  84 S7        29.98S
FOND DU LAC    CLOUDY    65  61  87 S7        29.96S
SHEBOYGAN      CLOUDY    66  61  84 SE7       29.97F
WEST BEND      CLOUDY    64  61  88 CALM      29.97S
JUNEAU         CLOUDY    65  63  92 SE8       29.97R
$$

LSZ147-162-291100-
LAKE SUPERIOR

STATION/POSITION TIME  TEMP    WIND        PRES    WAVE
                       AIR SEA DIR/SP/G            HT/PER
                 (UTC) (F)     (DEG/KT/KT) (MB)    (FT/S)
W MID LAKE BUOY  0950   59 56  130/  6/  6 1013.1S   1
DEVILS ISLAND    1000   61     100/  4/  5 1012.4F
PORT WING        0900   63      70/  3/  4 1011.9F
SAXON HARBOR     0900   66     190/  4/  9 1012.5F
$$

LMZ867-665-643>646-291100-
LAKE MICHIGAN

STATION/POSITION TIME  TEMP    WIND        PRES    WAVE
                       AIR SEA DIR/SP/G            HT/PER
                 (UTC) (F)     (DEG/KT/KT) (MB)    (FT/S)
N MID LAKE BUOY  0950   65 65  180/ 14/ 16 1016.5F   1/ 3
NORTHPORT PIER   0900   65     150/  6/  8 1016.3F
SISTER BAY       0811   64     160/  6/  8   N/A
ALGOMA LAKESHORE 0923          120/ 10/ 12   N/A
KEWAUNEE LAKESHO 0900   63     120/  8/ 11 1014.9F
SHEBOYGAN LAKESH 1000   67 69  150/ 17/ 18 1014.8F
ATWATER BUOY     1000   70     160/ 12/ 16 1015.7F
MILWAUKEE LAKESH 0900   70     160/ 10/ 11   N/A
S MID LAKE BUOY  0750   69 69  120/ 10/ 12 1015.8    2/ 5
KENOSHA   LAKESH 1000   72     160/ 15/ 17 1014.6S
$$

TC  - TEMPERATURE IN CELSIUS
VSB - VISIBILITY IN STATUTE MILES
WCI - WIND CHILL INDEX
HX  - HEAT INDEX



USA.gov is the U.S. government's official web portal to all federal, state and local government web resources and services.